Hourly Weather Roundup
Issued by NWS Central Illinois

Home | Current Version | Previous Version | Graphics & Text | Print | Product List | Glossary On
Versions: 1 2 3 4 5 6 7 8 9 10 11 12 13 14 15 16 17 18 19 20 21 22 23 24 25 26 27 28 29 30 31 32 33 34 35 36 37 38 39 40 41 42 43 44 45 46 47 48 49 50
000
NZUS43 KILX 211510
HWRILX

AREA WEATHER ROUNDUP
NATIONAL WEATHER SERVICE, LINCOLN IL
900 AM CST FRI NOV 21 2014


CITY           SKY/WX    TMP DP  RH WIND       PRES   REMARKS
BLOOMINGTON    SUNNY     20   7  57 SE12      30.45R WCI   8
CHAMPAIGN      SUNNY     20  10  65 E13       30.47S WCI   7
DECATUR        SUNNY     22  11  62 SE10      30.47R WCI  11
FLORA          SUNNY     26  17  70 SE12      30.50R WCI  15
GALESBURG      SUNNY     19  10  66 SE8       30.41S WCI   9
JACKSONVILLE   SUNNY     25  13  60 SE13      30.44R WCI  14
LACON          SUNNY     19   7  59 SE9       30.45R WCI   8
LAWRENCEVILLE  MIX PCPN  26  14  60 E10       30.51R WCI  16
LITCHFIELD     SUNNY     24  11  59 SE9       30.45R WCI  14
$$


CITY           SKY/WX    TMP DP  RH WIND       PRES   REMARKS
LINCOLN        SUNNY     22  12  64 SE12      30.48R WCI  11
MACOMB         SUNNY     21  11  66 SE18      30.44S WCI   6
MATTOON        SUNNY     22   9  57 SE12      30.46R WCI  10
MT CARMEL AP   SUNNY     30  18  59 SE9       30.50R WCI  22
OLNEY-NOBLE AP SUNNY     27  16  63 E10       30.50R WCI  17
PARIS          SUNNY     21  13  69 SE5       30.50R WCI  15
PEORIA         SUNNY     21   7  54 S10       30.45R WCI  10
PONTIAC        SUNNY     20   9  61 E13       30.46S WCI   8
RANTOUL        SUNNY     22  10  59 SE9       30.47R WCI  12
ROBINSON       SUNNY     26  16  66 E7        30.51S WCI  18
SPRINGFIELD    SUNNY     22  10  60 SE15      30.45R WCI   9
TAYLORVILLE    SUNNY     23  12  63 SE13      30.45S WCI  11
$$

...REGIONAL REPORTS...


CITY           SKY/WX    TMP DP  RH WIND       PRES   REMARKS
CHICAGO O`HARE MOSUNNY   18   4  54 S5        30.45R WCI  11
KANKAKEE       SUNNY     19   9  67 SE5       30.49R WCI  12
MOLINE         SUNNY     18   9  68 SE7       30.41S WCI   9
MOUNT VERNON   SUNNY     28  16  59 E8        30.48R WCI  20
PITTSFIELD     SUNNY     25  15  65 SE12      30.43S WCI  14
QUINCY         SUNNY     23  11  60 SE13      30.39S WCI  11
ROCKFORD       MOSUNNY   16   8  71 S7        30.45R WCI   6
$$


CITY           SKY/WX    TMP DP  RH WIND       PRES   REMARKS
BURLINGTON     MOSUNNY   20  10  65 SE9       30.40R WCI   9
CEDAR RAPIDS   MOSUNNY   16   9  74 SE14      30.35S WCI   2
DES MOINES     MOSUNNY   20  11  68 S14       30.31R WCI   7
KIRKSVILLE     SUNNY     24  16  71 SE14      30.34S WCI  12
OTTUMWA        MOSUNNY   20  11  68 SE12      30.35S WCI   8
ST LOUIS       MOSUNNY   30  15  53 E14       30.43R WCI  19
$$


CITY           SKY/WX    TMP DP  RH WIND       PRES   REMARKS
TERRE HAUTE    SUNNY     22  11  62 SE8       30.50R WCI  12
EVANSVILLE     SUNNY     30  17  58 E9        30.50R WCI  22
INDIANAPOLIS   SUNNY     20   9  62 E5        30.49R WCI  13
LAFAYETTE      SUNNY     18  10  71 S5        30.50R WCI  11
MADISON        SUNNY     16   6  65 S9        30.38F WCI   4
MILWAUKEE      SUNNY     17   2  51 SW6       30.42S WCI   9
$$




USA.gov is the U.S. government's official web portal to all federal, state and local government web resources and services.